Погода в Выксе

Погода в Выксе : погода сейчас, прогноз погоды и архив. Всё, что Вы хотите узнать о погоде в Выксе!

Хотите узнать прогноз погоды в Выксе? Тогда Вам сюда: Погода в Выксе

Поиск расширенной информации на нашем сайте:

Другие новости

Новости СМИ2

Главная страница сайта

Новости сайта

02.10.2013

Напоминаем, что на нашем новом сайте вы можете получить высокодетализированные прогнозы погоды по пунктам России, СНГ и мира (включающие важные для авиации метеовеличины, такие как направление и скорость ветра, видимость, явления погоды, количество и форма облачности, нижняя и верхняя граница облачности), а также ознакомиться с разнообразными материалами по авиационной метеорологии и подборкой полезных ссылок на эту тему.

Сайт Метеоцентр.Азия посвящён разработке технологий оптимизации авиаметеорологического обслуживания, включая проектирование и перспективное создание нескольких автоматизированных авиаметеорологических систем:
- система выпуска высокодетальных прогностических карт явлений погоды для нижнего воздушного пространства по России и ближнему зарубежью;
- система верификации прогнозов TAF (выпускаемых синоптиками официальных АМСГ РФ и ближнего зарубежья) и AUTOTAF (выпускаемых сайтом Метеоцентр.Азия) - выявление ошибок, онлайн-сопоставление с фактической погодой METAR, автоматическое внесение коррективов в прогнозы при резком отклонении фактической погоды от прогноза, подсчёт оправдываемости прогнозов по элементам и в целом;
- система обработки, анализа и отображения авиаметеорологической информации для применения провайдерами метеорологической информации.

Рекомендуем: Читайте тампоны clean point инструкция здесь все понятно!

Погода в Выксе - сегодня

Время (UTC), дата Ветер
(°,м/с) 
Видим.   Явления Облачность Т
(°С)
Тd
(°С)
f(%) Тe
(°С)
Pmin
(гПа)
dP
(гПа)
Po
(мм)
O2
(г/м3)
Тmin Tmax R s Состояние
почвы
03 17.02.17 180 (Ю) 2-5{05}  10 км    ясно 
-15 -17 85 -17  1025.1  -2.3  757  324  -16.8      42  равномерный
сухой снег
100% 
06 17.02.17 180 (Ю) 4-7{07}  10 км    8/0 средняя 
[Ac As]
-12.6 -14.6 85 -17  1024.1  -0.9  757  321           
09 17.02.17 180 (Ю) 3-6{08}  10 км    9/0 средняя 
[Ac As]
-6.5 -12 65 -9  1021.7  -2  755  313           
12 17.02.17 190 (Ю) 4-10{10}  10 км    10/0 средняя 
[Ac As]
-5.3 -10.8 65 -9  1018.7  -3  753  310           
15 17.02.17 200 (Ю) 3-7{10}  10 км    10/0 средняя 
[Ac As]
-5.5 -9.3 75 -8  1014.9  -3.7  750  309    -15       
18 17.02.17 200 (Ю) 3-6{08}  10 км  слаб. снег  10/10 480 м 
[Sc]
-6.3 -8.2 86 -9  1013.9  -1  749  310           
21 17.02.17 200 (Ю) 2-4{07}  10 км  {снег}  10/10 600 м 
[Sc]
-5.7 -7.1 90 -7  1011.8  -2.1  748  309           
00 18.02.17 210 (ЮЗ) 3-6{07}  10 км    10/0 средняя 
[Ac As]
-5.1 -7.2 85 -7  1010.7  -1  747  308           
03 18.02.17 210 (ЮЗ) 2-5{07}  4000 м  слаб. снег  10/10 300 м 
[Sc]
-4.7 -6 91 -6  1008.9  -1.8  746  306  -6.4    0.6  42  равномерный
сухой снег
100% 
06 18.02.17 220 (ЮЗ) 6-5{06}  10 км  в посл. час снег  10/10 300 м 
[Ns]
-3.1 -4.5 90 -7  1007.6  -1.1  745  304           
09 18.02.17 250 (З) 3-6{06}  10 км    10/10 300 м 
[Ns]
+0.6 -1.1 88 -1  1007.4  745  300           
12 18.02.17 270 (З) 4-7{07}  10 км    10/10 400 м 
[Ns]
+1.6 -0 89 -1  1007.4  745  298           
15 18.02.17 250 (З) 3-7{07}  10 км    10/10 300 м 
[Ns]
+1.5 +0.4 92 1007.1  -0.3  745  298    +1.6  0.0     
18 18.02.17 270 (З) 5-8{11}  10 км    10/0 средняя 
[As op]
+1.9 -0.9 82 -1  1006.3  -0.8  744  298           
21 18.02.17 270 (З) 4-7{10}  10 км    10/0 средняя 
[As op]
+1 -1.6 83 -1  1006.1  -0.2  744  299           
00 19.02.17 280 (З) 6-9{13}  10 км    10/0 средняя 
[As op]
+1.4 -2.7 74 -2  1007.1  745  299           
03 19.02.17 290 (З) 5-8{10}  10 км    9/9 300 м 
[Sc]
+1.3 -3.2 72 -1  1009.1  746  300  +0.9      42  равномерный
сухой снег
100% 
06 19.02.17 270 (З) 3-7{10}  10 км    10/0 средняя 
[Ac As]
+1.2 -3.3 72 1011.7  2.5  748  300    +1.1       
09 19.02.17 300 (СЗ) 3-4{08}  10 км    6/0 средняя 
[Ac trans]
+2 +0.3 88 +1  1013.4  1.8  749  300           
12 19.02.17 230 (ЮЗ) 3-4{07}  10 км    10/0 средняя 
[Ac As]
+2.2 -1.8 75 +1  1012.5  -0.9  749  300           
15 19.02.17 220 (ЮЗ) 4-9{09}  10 км    10/0 средняя 
[Ac As]
+0.8 -3.1 75 -2  1010.7  -2  747  301    +2.2       
18 19.02.17 220 (ЮЗ) 4-8{09}  10 км    10/0 средняя 
[As op]
+0.7 -3.2 75 -2  1008.1  -2.4  746  300           
00 20.02.17 240 (ЮЗ) 5-9{12}  10 км  слаб. снег  10/10 240 м 
[Sc]
+0.2 -0.7 94 -3  1005.7  -1.2  744  299           
03 20.02.17 230 (ЮЗ) 5-8{10}  10 км  слаб. снег  10/10 330 м 
[Sc]
+0.5 -0.3 94 -2  1004.5  -1.1  743  299  +0.1    0.3  38  равномерный
сухой снег
100% 
06 20.02.17 240 (ЮЗ) 6-11{12}  10 км  {снег}  10/10 300 м 
[Ns]
+1.3 -0.9 85 -2  1003.5  -1  742  298           
Время (UTC), дата Ветер
(°,м/с) 
Видим.   Явления Облачность Т
(°С)
Тd
(°С)
f(%) Тe
(°С)
Pmin
(гПа)
dP
(гПа)
Po
(мм)
O2
(г/м3)
Тmin Tmax R s Состояние
почвы

Для получения пояснительной информации подведите курсор к названию столбца.

ПОГОДА в Выксе - архив

Всё, что Вы хотите узнать о погоде в Выксе - удобно и подробно!

Выберите нужную дату (начиная с 1 января 2015* года) и нажмите кнопку "Найти".
Будут отображены архивные сводки погоды по пункту Выкса, начиная с указанной даты.


Отображать данные в формате CSV (для использования в таблицах Excel)


Внимание! Наш архив погоды предназначен исключительно для личного некоммерческого использования в познавательных целях. Если Вам необходимы официальные справки о состоянии погоды (для производственных, юридических, коммерческих и т.п. целей), обращайтесь в органы Росгидромета.

*Примечание: данная дата относится к архиву по метеостанциям СССР (Россия, СНГ, Балтия).
Архив по метеостанциям Зарубежной Европы и Азии (кроме Китая) хранится 10 дней, по другим регионам земного шара (Китай, Африка, Америка, Австралия, Океания) - 1 день.

Выкса - район местоположения метеостанции


Название, широта, долгота, высота метеостанции:
Выкса 55.3°ш. 42.1°д. 114 м над ур. моря [Российская Федерация]

Дополнительная информация

В oтличие oт бoльшинства пoгoдных сайтoв мы публикуем пoдрoбную метеoинфoрмацию в детальнoм прoфессиoнальнoм фoрмате.

Характеристики температуры и влажнoсти вoздуха измеряются на высoте 2 м в тени вдали oт зданий и деревьев.
Скoрoсть ветра измеряется на высoте 10 м (на урoвне рoста челoвека скoрoсть ветра ниже в 1.5-2 раза). Если метеoстанция нахoдится в гoрoде или в лесу, тo скoрoсть ветра занижена на 2-4 м/с пo сравнению с oткрытым местoм. Скoрoсть ветра над акватoриями крупных рек и oзёр, а также на вершинах хoлмoв на 2-5 м/с выше, чем в oбычных услoвиях.
Атмoсфернoе давление в разных тoчках местнoсти мoжет значительнo oтличаться oт давления на метеoстанции, в зависимoсти oт услoвий рельефа (при пoдъёме на 10 м давление пoнижается примернo на 1 мм рт.ст.).